N8JE Weather Reports


time (UTC)temp
C
wind
direction
speed
KPH
gust
KPH
rain 1hr
cm
rain 24hr
cm
rain mn
cm
humidity
%
barometer
mb
20260903025505 27 224 0.0 1.6 0.00 0.00 0.00 76 1013.9
20260903025005 27 247 0.0 0.0 0.00 0.00 0.00 76 1014.0
20260903024504 28 247 0.0 0.0 0.00 0.00 0.00 75 1014.1
20260903024005 28 247 0.0 0.0 0.00 0.00 0.00 75 1014.1
20260903023505 28 247 0.0 0.0 0.00 0.00 0.00 74 1014.0
20260903023005 28 247 0.0 0.0 0.00 0.00 0.00 74 1014.1
20260903022005 28 237 0.0 0.0 0.00 0.00 0.00 74 1014.1
20260903021504 28 237 0.0 0.0 0.00 0.00 0.00 73 1014.1
20260903021005 28 237 0.0 0.0 0.00 0.00 0.00 73 1014.1
20260903020505 28 237 0.0 0.0 0.00 0.00 0.00 73 1014.1
20260903015504 28 250 1.6 4.8 0.00 0.00 0.00 72 1014.1
20260903015005 29 252 0.0 1.6 0.00 0.00 0.00 72 1014.0
20260903014505 29 251 0.0 3.2 0.00 0.00 0.00 72 1014.0
20260903014005 29 259 1.6 4.8 0.00 0.00 0.00 72 1013.9
20260903013505 29 246 0.0 4.8 0.00 0.00 0.00 72 1013.9
20260903013005 29 243 0.0 8.0 0.00 0.00 0.00 72 1013.9
20260903012504 29 234 0.0 3.2 0.00 0.00 0.00 71 1013.9
20260903012005 29 234 0.0 3.2 0.00 0.00 0.00 71 1013.9
20260903011504 29 264 1.6 3.2 0.00 0.00 0.00 71 1013.8
20260903011005 29 254 1.6 3.2 0.00 0.00 0.00 71 1013.8
20260903010504 29 235 0.0 3.2 0.00 0.00 0.00 71 1013.7
20260903010005 29 249 0.0 8.0 0.00 0.00 0.00 71 1013.7
20260903005504 29 219 0.0 4.8 0.00 0.00 0.00 70 1013.7
20260903005005 29 278 0.0 4.8 0.00 0.00 0.00 70 1013.6
20260903004504 30 236 0.0 3.2 0.00 0.00 0.00 70 1013.6
20260903004004 30 228 0.0 1.6 0.00 0.00 0.00 70 1013.6
20260903003004 30 245 0.0 0.0 0.00 0.00 0.00 69 1013.4
20260903002504 30 238 0.0 0.0 0.00 0.00 0.00 69 1013.4
20260903001504 30 223 0.0 8.0 0.00 0.00 0.00 68 1013.4
20260903001005 30 249 1.6 4.8 0.00 0.00 0.00 67 1013.4
20260903000504 30 239 0.0 3.2 0.00 0.00 0.00 67 1013.5
20260903000004 31 247 1.6 4.8 0.00 0.00 0.00 67 1013.5
20260902235004 31 226 1.6 8.0 0.00 0.00 0.00 66 1013.4
20260902234504 31 264 1.6 3.2 0.00 0.00 0.00 65 1013.4
20260902233504 31 244 3.2 9.7 0.00 0.00 0.00 64 1013.3
20260902233004 31 267 1.6 8.0 0.00 0.00 0.00 64 1013.3
20260902232504 31 248 3.2 9.7 0.00 0.00 0.00 63 1013.3
20260902232004 32 251 1.6 8.0 0.00 0.00 0.00 63 1013.3
20260902231504 32 257 1.6 8.0 0.00 0.00 0.00 62 1013.3
20260902231004 32 248 1.6 9.7 0.00 0.00 0.00 61 1013.3
20260902230504 32 220 3.2 11.3 0.00 0.00 0.00 61 1013.3
20260902230005 32 230 1.6 8.0 0.00 0.00 0.00 61 1013.3
20260902225505 32 224 6.4 12.9 0.00 0.00 0.00 60 1013.3
20260902225005 33 260 3.2 11.3 0.00 0.00 0.00 59 1013.3
20260902224504 33 244 4.8 9.7 0.00 0.00 0.00 59 1013.3
20260902224005 33 316 1.6 8.0 0.00 0.00 0.00 59 1013.3
20260902223504 33 240 3.2 8.0 0.00 0.00 0.00 58 1013.4
20260902223004 33 235 3.2 9.7 0.00 0.00 0.00 58 1013.4
20260902222504 33 244 4.8 9.7 0.00 0.00 0.00 57 1013.4
20260902222004 34 246 0.0 3.2 0.00 0.00 0.00 57 1013.4
20260902221504 33 242 1.6 9.7 0.00 0.00 0.00 58 1013.4
20260902221005 33 225 3.2 9.7 0.00 0.00 0.00 58 1013.5
20260902220504 33 267 3.2 11.3 0.00 0.00 0.00 58 1013.5
20260902215504 34 242 3.2 9.7 0.00 0.00 0.00 57 1013.4
20260902215005 34 258 3.2 8.0 0.00 0.00 0.00 57 1013.5
20260902214504 33 244 4.8 9.7 0.00 0.00 0.00 58 1013.5
20260902214004 34 242 3.2 14.5 0.00 0.00 0.00 57 1013.5
20260902213504 34 255 8.0 20.9 0.00 0.00 0.00 56 1013.6
20260902213004 34 236 4.8 11.3 0.00 0.00 0.00 55 1013.6
20260902212504 34 251 4.8 14.5 0.00 0.00 0.00 55 1013.6
20260902212004 34 272 4.8 11.3 0.00 0.00 0.00 54 1013.6
20260902211505 34 269 4.8 14.5 0.00 0.00 0.00 55 1013.6
20260902211004 34 271 3.2 11.3 0.00 0.00 0.00 54 1013.6
20260902210505 34 246 3.2 9.7 0.00 0.00 0.00 54 1013.7
20260902210004 34 264 8.0 14.5 0.00 0.00 0.00 53 1013.7
20260902205503 34 257 6.4 14.5 0.00 0.00 0.00 53 1013.7
20260902205005 34 231 8.0 12.9 0.00 0.00 0.00 53 1013.7
20260902204504 34 219 3.2 12.9 0.00 0.00 0.00 52 1013.8
20260902203504 34 219 3.2 11.3 0.00 0.00 0.00 51 1013.9
20260902202504 34 238 8.0 14.5 0.00 0.00 0.00 52 1014.1
20260902202004 34 247 4.8 14.5 0.00 0.00 0.00 53 1014.1
20260902201004 34 265 3.2 11.3 0.00 0.00 0.00 54 1014.2
20260902200004 34 294 3.2 11.3 0.00 0.00 0.00 56 1014.3
20260902195504 33 270 4.8 12.9 0.00 0.00 0.00 52 1014.4
20260902195004 33 271 3.2 9.7 0.00 0.00 0.00 54 1014.5
20260902194504 34 305 6.4 12.9 0.00 0.00 0.00 53 1014.4
20260902194004 34 262 4.8 14.5 0.00 0.00 0.00 55 1014.5
20260902192504 33 279 3.2 16.1 0.00 0.00 0.00 55 1014.5
20260902192004 33 258 6.4 12.9 0.00 0.00 0.00 53 1014.6
20260902191004 33 243 3.2 12.9 0.00 0.00 0.00 55 1014.7
20260902190504 34 244 8.0 12.9 0.00 0.00 0.00 53 1014.7
20260902190004 34 240 1.6 11.3 0.00 0.00 0.00 55 1014.7
20260902185005 33 286 3.2 11.3 0.00 0.00 0.00 57 1014.8
20260902184504 34 298 3.2 11.3 0.00 0.00 0.00 55 1014.9
20260902184004 34 226 8.0 16.1 0.00 0.00 0.00 53 1014.9
20260902183503 34 233 4.8 9.7 0.00 0.00 0.00 53 1014.9
20260902183004 34 237 11.3 16.1 0.00 0.00 0.00 53 1015.0
20260902182504 33 311 3.2 14.5 0.00 0.00 0.00 58 1015.1
20260902182004 33 327 4.8 12.9 0.00 0.00 0.00 57 1015.0
20260902181504 33 264 4.8 9.7 0.00 0.00 0.00 56 1015.0
20260902181003 34 207 4.8 9.7 0.00 0.00 0.00 55 1015.1
20260902180504 33 259 6.4 14.5 0.00 0.00 0.00 57 1015.1
20260902180006 33 226 9.7 19.3 0.00 0.00 0.00 58 1015.1
20260902175504 33 358 3.2 14.5 0.00 0.00 0.00 59 1015.1
20260902175004 33 122 3.2 9.7 0.00 0.00 0.00 61 1015.2
20260902174504 33 353 4.8 9.7 0.00 0.00 0.00 57 1015.3
20260902174004 33 327 3.2 9.7 0.00 0.00 0.00 57 1015.4
20260902173504 33 258 4.8 14.5 0.00 0.00 0.00 57 1015.5
20260902173004 33 261 4.8 9.7 0.00 0.00 0.00 57 1015.6
20260902172504 33 339 8.0 16.1 0.00 0.00 0.00 58 1015.6
20260902172004 33 294 4.8 9.7 0.00 0.00 0.00 58 1015.6
20260902171504 33 305 3.2 9.7 0.00 0.00 0.00 59 1015.7
20260902171004 33 345 8.0 11.3 0.00 0.00 0.00 59 1015.7
20260902170504 33 332 3.2 9.7 0.00 0.00 0.00 58 1015.8
20260902170004 33 279 1.6 12.9 0.00 0.00 0.00 60 1015.7
20260902165504 33 269 4.8 14.5 0.00 0.00 0.00 58 1015.7
20260902165004 33 320 4.8 14.5 0.00 0.00 0.00 59 1015.8
20260902164504 33 242 1.6 8.0 0.00 0.00 0.00 62 1015.8
20260902163504 32 327 1.6 9.7 0.00 0.00 0.00 62 1015.9
20260902163005 33 265 1.6 9.7 0.00 0.00 0.00 62 1016.0
20260902162505 32 178 3.2 8.0 0.00 0.00 0.00 62 1015.9
20260902162005 32 313 3.2 9.7 0.00 0.00 0.00 63 1015.9
20260902161504 32 222 6.4 9.7 0.00 0.00 0.00 63 1015.8
20260902161005 32 251 3.2 9.7 0.00 0.00 0.00 64 1015.8
20260902160505 32 292 3.2 9.7 0.00 0.00 0.00 63 1015.9
20260902155505 31 265 1.6 9.7 0.00 0.00 0.00 64 1015.9
20260902155004 32 248 4.8 11.3 0.00 0.00 0.00 64 1015.9
20260902154004 31 242 1.6 12.9 0.00 0.00 0.00 65 1016.1
20260902153505 31 333 3.2 9.7 0.00 0.00 0.00 66 1016.2
20260902153005 31 221 4.8 9.7 0.00 0.00 0.00 66 1016.1
20260902152504 31 329 1.6 4.8 0.00 0.00 0.00 66 1016.1
20260902152005 31 312 1.6 8.0 0.00 0.00 0.00 66 1016.1
20260902151505 31 228 3.2 9.7 0.00 0.00 0.00 67 1016.1
20260902151005 30 260 4.8 11.3 0.00 0.00 0.00 68 1016.2
20260902150506 30 299 1.6 8.0 0.00 0.00 0.00 68 1016.1
20260902145505 30 259 3.2 11.3 0.00 0.00 0.00 70 1016.1
20260902145005 30 292 1.6 9.7 0.00 0.00 0.00 70 1016.2
20260902144505 30 328 1.6 4.8 0.00 0.00 0.00 70 1016.2
20260902144004 30 278 1.6 8.0 0.00 0.00 0.00 71 1016.2
20260902143505 30 8 3.2 8.0 0.00 0.00 0.00 71 1016.2
20260902143004 29 241 1.6 8.0 0.00 0.00 0.00 73 1016.1
20260902142505 29 246 1.6 8.0 0.00 0.00 0.00 73 1016.1
20260902141504 28 262 3.2 9.7 0.00 0.00 0.00 73 1016.1
20260902141005 28 299 0.0 9.7 0.00 0.00 0.00 74 1016.2
20260902140504 28 252 3.2 9.7 0.00 0.00 0.00 74 1016.1
20260902140004 28 213 1.6 9.7 0.00 0.00 0.00 75 1016.0
20260902135005 27 237 4.8 9.7 0.00 0.00 0.00 76 1016.0
20260902134504 27 289 1.6 8.0 0.00 0.00 0.00 77 1016.1
20260902134005 27 312 3.2 9.7 0.00 0.00 0.00 77 1016.1
20260902133505 27 260 1.6 9.7 0.00 0.00 0.00 78 1016.2
20260902133004 27 248 3.2 8.0 0.00 0.00 0.00 80 1016.2
20260902132505 27 257 3.2 9.7 0.00 0.00 0.00 79 1016.2
20260902132005 27 247 1.6 11.3 0.00 0.00 0.00 79 1016.2
20260902131504 26 260 3.2 9.7 0.00 0.00 0.00 80 1016.1
20260902130504 26 242 1.6 8.0 0.00 0.00 0.00 80 1016.0
20260902125504 26 266 1.6 4.8 0.00 0.00 0.00 81 1016.1
20260902125005 26 230 3.2 8.0 0.00 0.00 0.00 81 1016.1
20260902124504 26 228 1.6 9.7 0.00 0.00 0.00 81 1016.1
20260902124005 26 259 3.2 9.7 0.00 0.00 0.00 81 1016.0
20260902123504 26 242 1.6 3.2 0.00 0.00 0.00 83 1016.0
20260902123004 25 268 3.2 8.0 0.00 0.00 0.00 83 1016.0
20260902122505 25 243 3.2 9.7 0.00 0.00 0.00 83 1016.0
20260902122004 25 238 1.6 4.8 0.00 0.00 0.00 84 1016.0
20260902121504 25 230 1.6 4.8 0.00 0.00 0.00 85 1015.9
20260902120004 23 214 1.6 4.8 0.00 0.00 0.00 88 1015.9
20260902115004 23 267 0.0 0.0 0.00 0.00 0.00 91 1015.8
20260902113505 22 214 0.0 0.0 0.00 0.00 0.00 92 1015.7
20260902113005 22 214 0.0 0.0 0.00 0.00 0.00 92 1015.6
20260902112505 22 214 0.0 0.0 0.00 0.00 0.00 92 1015.6
20260902112005 22 215 0.0 0.0 0.00 0.00 0.00 92 1015.6
20260902111504 22 215 0.0 0.0 0.00 0.00 0.00 92 1015.6
20260902111004 22 215 0.0 0.0 0.00 0.00 0.00 92 1015.6
20260902110505 22 215 0.0 0.0 0.00 0.00 0.00 92 1015.5
20260902110007 22 215 0.0 0.0 0.00 0.00 0.00 92 1015.5
20260902105005 22 215 0.0 0.0 0.00 0.00 0.00 91 1015.4
20260902104004 22 215 0.0 0.0 0.00 0.00 0.00 91 1015.4
20260902103504 22 215 0.0 0.0 0.00 0.00 0.00 91 1015.3
20260902103004 22 215 0.0 0.0 0.00 0.00 0.00 91 1015.3
20260902102004 22 219 0.0 0.0 0.00 0.00 0.00 91 1015.3
20260902101504 22 219 0.0 0.0 0.00 0.00 0.00 91 1015.4
20260902101004 22 219 0.0 0.0 0.00 0.00 0.00 91 1015.3
20260902100505 22 219 0.0 0.0 0.00 0.00 0.00 91 1015.4
20260902100005 22 231 0.0 0.0 0.00 0.00 0.00 91 1015.4
20260902095505 22 270 0.0 0.0 0.00 0.00 0.00 91 1015.5
20260902095004 22 270 0.0 1.6 0.00 0.00 0.00 91 1015.5
20260902094504 22 270 0.0 0.0 0.00 0.00 0.00 90 1015.4
20260902094004 22 270 0.0 0.0 0.00 0.00 0.00 90 1015.4
20260902093504 23 270 0.0 0.0 0.00 0.00 0.00 89 1015.3
20260902093004 23 270 0.0 0.0 0.00 0.00 0.00 89 1015.3
20260902092504 23 270 0.0 0.0 0.00 0.00 0.00 89 1015.3
20260902092004 23 270 0.0 0.0 0.00 0.00 0.00 88 1015.2
20260902091504 23 270 0.0 0.0 0.00 0.00 0.00 88 1015.3
20260902090505 23 270 0.0 0.0 0.00 0.00 0.00 87 1015.3
20260902090004 23 270 0.0 0.0 0.00 0.00 0.00 87 1015.2
20260902085504 23 270 0.0 0.0 0.00 0.00 0.00 87 1015.2
20260902084004 24 270 0.0 0.0 0.00 0.00 0.00 86 1015.1
20260902083504 24 278 0.0 3.2 0.00 0.00 0.00 86 1015.0
20260902083004 24 231 0.0 0.0 0.00 0.00 0.00 86 1014.9
20260902082504 24 231 0.0 0.0 0.00 0.00 0.00 86 1014.9
20260902082004 24 223 0.0 1.6 0.00 0.00 0.00 86 1014.8
20260902081504 24 224 0.0 1.6 0.00 0.00 0.00 86 1014.8
20260902081004 24 243 0.0 0.0 0.00 0.00 0.00 86 1014.7
20260902080504 24 243 0.0 0.0 0.00 0.00 0.00 85 1014.7
20260902080004 24 215 0.0 1.6 0.00 0.00 0.00 86 1014.7
20260902075504 24 243 0.0 3.2 0.00 0.00 0.00 86 1014.7
20260902075005 24 237 0.0 1.6 0.00 0.00 0.00 86 1014.6
20260902074504 24 237 0.0 1.6 0.00 0.00 0.00 85 1014.6
20260902074003 24 237 0.0 0.0 0.00 0.00 0.00 86 1014.6
20260902073504 24 257 0.0 0.0 0.00 0.00 0.00 86 1014.7
20260902073004 24 229 0.0 0.0 0.00 0.00 0.00 85 1014.6
20260902072504 24 226 0.0 0.0 0.00 0.00 0.00 85 1014.6
20260902072004 24 226 0.0 1.6 0.00 0.00 0.00 85 1014.7
20260902071004 25 226 0.0 0.0 0.00 0.00 0.00 85 1014.7
20260902070504 25 226 0.0 0.0 0.00 0.00 0.00 85 1014.8
20260902070006 25 226 0.0 0.0 0.00 0.00 0.00 84 1014.7
20260902065504 25 243 0.0 0.0 0.00 0.00 0.00 84 1014.8
20260902065004 25 244 0.0 0.0 0.00 0.00 0.00 83 1014.8
20260902064503 25 244 0.0 0.0 0.00 0.00 0.00 83 1014.7
20260902064004 25 244 0.0 0.0 0.00 0.00 0.00 83 1014.8
20260902063504 25 244 0.0 0.0 0.00 0.00 0.00 82 1014.8
20260902063004 25 244 0.0 0.0 0.00 0.00 0.00 82 1014.8
20260902062504 25 244 0.0 0.0 0.00 0.00 0.00 81 1014.8
20260902061504 26 226 0.0 0.0 0.00 0.00 0.00 81 1014.8
20260902060504 26 231 0.0 1.6 0.00 0.00 0.00 81 1014.8
20260902055504 26 209 0.0 1.6 0.00 0.00 0.00 80 1014.7
20260902055004 26 278 0.0 4.8 0.00 0.00 0.00 80 1014.7
20260902054504 26 247 0.0 3.2 0.00 0.00 0.00 80 1014.6
20260902054004 26 265 1.6 8.0 0.00 0.00 0.00 80 1014.6
20260902053503 26 280 0.0 1.6 0.00 0.00 0.00 79 1014.5
20260902053004 26 250 1.6 3.2 0.00 0.00 0.00 80 1014.5
20260902052504 26 242 1.6 4.8 0.00 0.00 0.00 80 1014.4
20260902052004 26 241 1.6 4.8 0.00 0.00 0.00 80 1014.5
20260902051504 26 241 0.0 3.2 0.00 0.00 0.00 79 1014.4
20260902051003 26 260 0.0 1.6 0.00 0.00 0.00 79 1014.4
20260902050504 26 239 0.0 3.2 0.00 0.00 0.00 79 1014.5
20260902050006 26 248 1.6 9.7 0.00 0.00 0.00 78 1014.5
20260902045504 26 239 1.6 8.0 0.00 0.00 0.00 78 1014.5
20260902044504 26 244 1.6 4.8 0.00 0.00 0.00 79 1014.6
20260902044004 26 246 0.0 8.0 0.00 0.00 0.00 79 1014.6
20260902043504 26 238 0.0 4.8 0.00 0.00 0.00 80 1014.7
20260902043004 26 226 0.0 1.6 0.00 0.00 0.00 81 1014.7
20260902042003 26 240 0.0 0.0 0.00 0.00 0.00 81 1014.8
20260902041505 26 240 0.0 0.0 0.00 0.00 0.00 81 1014.7
20260902041005 26 229 0.0 0.0 0.00 0.00 0.00 80 1014.7
20260902040506 26 235 0.0 0.0 0.00 0.00 0.00 80 1014.8
20260902040005 26 240 0.0 0.0 0.00 0.00 0.00 80 1014.8
20260902035505 26 221 0.0 0.0 0.00 0.00 0.00 80 1014.8
20260902035005 26 244 0.0 0.0 0.00 0.00 0.00 79 1014.8
20260902034505 26 259 0.0 0.0 0.00 0.00 0.00 79 1014.8
20260902034005 26 259 0.0 0.0 0.00 0.00 0.00 79 1014.8
20260902033005 27 259 0.0 0.0 0.00 0.00 0.00 78 1014.8
20260902032504 27 250 0.0 1.6 0.00 0.00 0.00 78 1014.7
20260902032004 27 240 0.0 3.2 0.00 0.00 0.00 78 1014.7
20260902031004 27 245 0.0 1.6 0.00 0.00 0.00 78 1014.9
20260902030505 27 245 0.0 1.6 0.00 0.00 0.00 78 1014.9
20260902030006 27 240 0.0 1.6 0.00 0.00 0.00 79 1014.8